Starlink 2504

operational
NORAD ID: 48328 Int'l Des: 2021-036 Owner: SPXS Country: US Constellation: starlink
LEOCIRCULARSTARLINK_TYPE

Über Starlink 2504

Beschreibung wird geladen...

Live-Position

3D-Globus wird geladen...

Nächste Überflüge

Höhenverlauf

Altitude vs Time

uPlot chart will show altitude changes over time

Zweizeiliger Elementsatz

1 48328U 21036BE 25306.43545811 .00002813 00000-0 20766-3 0 9992
2 48328 53.0536 312.8842 0001463 86.7731 273.3425 15.06405280248857
Epoch: 2. Nov. 2025 • Age: 23 hours

Aktueller Status

Höhe 552.7 km
Geschwindigkeit 7.59 km/s
Subsatellitenpunkt 53.15°N, 138.02°W
Startdatum 29. Apr. 2021
Alter 4.5 years
Typ internet

Technische Details

Klassifizierung Payload
Masse 260.00 kg
Trockenmasse 248.00 kg
Gesamtmasse 260.00 kg
Länge 0.20 m
Durchmesser 2.80 m
Spannweite 9.00 m
Form Box + pan
Hersteller SPXS
Bus-Typ Starlink
Phasenstatus In Orbit
Besitzer/Staat SPXS/US

Große Konstellationen

Loading constellations...